Theta_e
334 341 344 346 345 344 345 344 344 344 344 344 344 344 344 344 344 344 344 340 343 343 342 341 341 340 340 342 340 338 338 339 342
338 341 342 343 343 344 344 344 344 344 344 345 344 344 344 344 343 343 343 344 340 342 340 342 344 343 344 343 344 341 342 342 342
338 341 341 341 341 342 343 344 344 344 343 344 344 344 344 344 344 342 342 343 343 340 341 341 341 342 343 344 340 340 341 345 346
335 341 337 337 338 340 342 342 343 344 344 344 344 344 344 344 344 344 342 342 342 343 340 339 340 341 343 343 338 337 342 344 346
330 330 339 339 339 339 340 341 342 343 343 343 344 344 344 344 344 344 344 341 342 342 342 342 339 340 342 342 339 337 340 343 345
331 331 329 336 339 340 340 341 341 342 343 343 343 344 344 344 344 344 344 343 340 341 342 342 341 342 343 344 337 338 343 344 345
332 333 332 331 334 339 340 341 341 342 343 343 343 343 344 344 343 343 344 344 340 339 340 341 341 341 343 341 337 342 344 345 345
332 333 334 335 337 338 339 340 341 342 343 343 343 343 344 344 344 343 344 345 341 337 340 341 341 341 342 339 336 338 341 341 343
341 339 336 336 337 339 340 340 341 342 342 343 343 344 343 343 344 344 344 345 344 338 336 341 341 341 341 340 336 333 337 342 343
345 346 345 341 339 339 339 340 341 341 341 342 343 343 344 344 343 343 344 345 346 341 337 336 337 339 339 338 335 334 335 335 336
344 345 347 349 350 347 342 340 340 341 342 342 343 344 344 345 344 344 344 344 345 346 344 338 336 335 335 335 336 335 336 337 339
339 340 340 345 350 354 352 347 343 343 343 343 344 344 345 345 345 344 344 344 345 346 346 345 338 336 337 337 337 338 341 343 345
336 336 335 336 340 345 352 354 349 347 346 345 346 346 347 347 347 346 345 345 345 345 346 347 346 340 338 339 341 343 346 348 349
338 339 339 337 337 337 341 344 347 349 349 348 348 348 348 349 349 348 347 347 346 346 346 347 348 348 347 347 348 349 350 351 351
334 336 335 333 333 333 336 335 342 340 338 338 344 347 349 350 350 350 350 349 349 347 347 347 348 348 349 349 350 351 353 353 352
332 331 329 328 328 329 330 331 332 333 332 332 334 335 338 340 348 351 350 350 349 349 349 349 349 349 350 350 350 352 352 349 351
331 328 327 326 325 325 325 327 327 325 324 329 331 333 339 341 342 343 345 350 350 349 350 351 349 347 346 347 350 351 350 348 343
323 324 324 325 328 328 327 326 325 325 326 327 325 326 331 335 339 337 340 344 348 349 350 348 342 333 335 337 334 346 346 341 336
322 322 322 323 323 322 322 323 324 323 324 326 326 326 326 335 337 337 342 341 335 337 343 346 343 336 339 337 336 338 338 333 322
322 322 322 321 322 323 322 322 323 322 321 321 322 324 329 333 337 336 339 339 334 340 338 342 341 339 332 330 329 335 333 326 320
Wind_Speed
9 19 21 25 27 29 29 34 32 31 30 29 27 26 26 25 24 24 23 21 21 19 20 21 18 20 20 17 15 15 15 14 12
12 19 24 25 26 28 27 32 34 33 31 30 28 26 25 26 25 25 25 25 24 23 19 22 17 19 19 16 17 15 13 13 11
10 14 18 22 25 26 27 27 29 33 32 30 28 27 27 25 23 24 24 24 26 29 26 24 23 19 20 19 17 17 16 14 13
5 11 18 22 24 25 25 25 26 29 34 34 32 31 28 26 24 22 23 25 25 27 27 28 26 24 22 21 18 18 17 18 15
10 7 12 17 20 22 25 26 26 27 29 35 35 31 29 28 26 24 22 24 25 26 28 28 27 25 24 23 22 21 20 18 17
8 5 6 12 18 22 24 25 25 26 25 29 35 32 29 27 27 26 24 22 23 24 27 29 29 27 26 24 24 22 20 18 17
8 5 4 6 12 17 20 22 23 24 24 25 30 33 33 29 26 26 24 20 21 22 24 27 29 29 27 25 26 24 22 21 22
6 4 5 6 8 11 16 18 20 22 21 22 25 29 34 31 24 24 24 22 20 20 22 25 27 28 28 27 27 27 27 26 24
5 1 3 5 8 11 12 15 16 16 18 20 22 26 30 35 32 27 25 23 20 21 22 23 26 29 29 29 30 30 27 25 27
9 8 4 2 4 7 11 13 14 15 14 16 18 21 25 31 34 31 26 24 22 21 23 23 26 27 28 30 30 30 28 28 29
13 15 13 10 6 2 6 8 10 13 15 15 16 19 22 25 30 30 28 26 24 22 21 24 25 26 27 28 28 27 26 25 25
12 14 19 20 19 16 7 4 8 8 10 13 15 18 19 22 26 28 27 26 25 23 23 23 25 26 26 26 25 23 22 21 25
14 15 17 18 15 14 14 11 1 3 2 8 10 15 16 17 20 25 28 26 25 23 22 22 22 24 25 24 24 23 22 23 25
8 8 8 11 12 16 15 14 18 10 6 6 10 13 12 14 15 17 22 25 26 25 24 23 23 23 23 23 22 23 22 22 22
3 4 4 7 8 7 6 6 7 12 16 13 9 7 12 15 14 12 14 17 21 23 24 24 25 25 24 24 24 24 20 21 22
8 5 4 2 5 6 5 7 9 16 14 13 17 11 6 28 18 12 15 16 18 19 20 23 25 26 26 26 27 23 21 21 20
12 9 7 6 5 6 6 7 5 4 5 2 5 5 16 23 14 10 16 20 21 23 23 22 20 19 21 29 25 19 19 18 16
16 16 14 15 16 15 14 12 10 8 8 10 8 6 18 18 13 10 12 14 17 20 22 23 25 29 41 36 28 23 17 13 11
22 20 20 19 16 15 16 14 11 9 8 7 9 13 14 13 13 12 17 20 19 17 15 21 31 30 26 33 30 19 17 14 14
30 28 26 24 24 22 19 17 16 12 10 12 12 11 13 14 15 13 15 16 16 16 14 21 22 22 26 24 15 25 17 18 16
Wind_Direction
193 191 198 202 206 215 212 214 213 213 213 214 216 221 224 228 228 224 224 221 216 217 217 213 219 221 223 230 234 242 250 257 267
177 187 193 199 208 215 218 215 214 214 215 215 217 219 223 226 226 225 224 222 219 219 217 217 221 220 222 230 243 242 248 250 257
185 191 198 204 210 214 221 221 216 214 218 219 218 219 223 225 228 227 227 225 222 222 225 224 225 225 227 235 243 238 245 242 250
298 212 198 208 217 221 224 224 221 215 216 221 222 222 223 226 227 229 230 228 227 225 224 226 230 230 230 235 237 237 240 247 256
327 263 233 217 221 224 225 226 224 221 213 219 224 224 226 227 229 230 232 232 231 228 227 227 228 229 232 234 236 235 243 250 257
343 321 253 229 220 222 226 231 229 228 219 216 223 221 226 228 228 229 233 234 231 230 228 228 227 224 226 234 231 234 240 240 239
341 335 283 227 225 228 226 231 236 232 227 214 220 220 220 226 229 229 230 234 233 232 228 226 223 223 228 229 226 230 235 239 243
317 297 298 259 228 225 227 232 235 233 231 220 218 220 217 217 222 227 229 232 231 231 228 225 223 224 228 230 230 235 239 244 251
332 233 250 255 237 224 223 227 233 236 232 228 220 222 218 218 223 227 227 228 231 228 226 223 222 225 228 232 236 238 243 249 257
4 9 16 5 275 255 240 242 242 235 236 232 224 224 224 222 222 225 226 225 228 229 227 226 227 228 231 234 238 242 248 253 259
37 34 32 33 24 311 242 251 252 249 240 238 236 230 228 228 226 225 226 225 229 231 229 229 229 230 233 237 240 244 247 252 255
54 47 54 50 44 35 17 226 227 244 251 248 242 238 229 228 227 224 225 225 228 233 235 233 231 232 233 236 240 242 245 246 250
88 72 58 47 42 27 31 44 61 204 278 282 284 264 255 248 241 235 232 231 230 232 238 241 241 239 238 239 242 244 245 247 252
28 17 16 359 354 24 24 22 58 62 57 12 315 303 293 277 262 250 248 244 239 236 238 241 243 244 243 244 245 250 250 254 259
241 232 287 311 334 345 304 319 11 51 43 37 341 16 338 301 275 259 254 249 245 241 241 243 243 244 247 250 252 252 255 263 267
292 277 301 3 23 15 332 312 289 269 316 313 305 274 1 300 298 280 250 245 242 239 239 242 249 251 253 250 258 262 262 265 262
295 296 292 313 327 4 355 341 353 18 21 230 198 173 275 270 276 280 281 262 243 239 237 235 237 251 277 279 261 264 265 264 259
296 292 290 287 283 286 287 294 300 301 296 286 314 258 240 264 273 285 282 284 271 251 241 238 236 271 264 275 311 289 268 251 249
294 292 285 281 277 281 289 280 263 264 276 280 266 265 268 272 277 261 263 268 269 266 253 248 254 241 230 243 274 262 247 228 207
281 282 281 278 271 271 273 276 274 265 270 275 277 271 266 271 276 276 270 260 237 229 231 236 231 247 242 221 219 229 220 215 214